"Pseudo-MPEC" for P10Swlq

Created 2019 Oct 21 2:07:34 UT using Find_Orb

Click here for an explanation of pseudo-MPECs

 
 Astrometry: 
     P10Swlq  C2019 10 07cBne!\?2QuRpAstrometryg6_vInredacted;^+Z=ur@%HK@?h)aF51
     P10Swlq  C2019 10 076IbrhOI='s+qY[t'@Za7U3WZ[\TJ^;:-Xclick3Ohere-6lh0Q9CF51
     P10Swlq  C2019 10 0733J-formeDyU7Z7k5O*V6bC?IZf7jq*g*7ke5Bexplanation!DYF51

Station data:
(F51) Pan-STARRS 1, Haleakala  (N20.707235 W156.255910)  US/Hawaii.
   Observers N. Primak, A. Schultz, S. Watters, J. Thiel, T. Goggia. Measurer
   PS1 Science Consortium. 1.8-m Ritchey-Chrétien + CCD.

Orbital elements:  P10Swlq
   Perihelion 2019 Oct 18.423296 +/- 44.2 TT = 10:09:32 (JD 2458774.923296)
Epoch 2019 Oct  7.0 TT = JDT 2458763.5   Earth MOID: 0.3288   AutoNEOCP
M 356.54857819 +/- 17               (J2000 ecliptic)
n   0.30213886 +/- 0.263            Peri.  156.24044 +/- 80
a   2.19953893 +/- 1.28             Node   227.51912 +/- 49
e   0.3992400 +/- 0.249             Incl.    6.34261 +/- 3.8
P   3.26                   H 24.0   G  0.15   U 11.8  SR
q 1.32139486 +/- 0.332    Q 3.07768300 +/- 66.7
From 3 observations 2019 Oct. 7 (35.6 min); mean residual 0".06
Residuals in arcseconds: 
191007 F51  .05+  .02+    191007 F51  .11-  .04-    191007 F51  .05+  .02+    

Ephemerides (geocentric):
Date (UTC) HH   RA              Dec         delta   r     elong  mag " sig PA
---- -- -- --  -------------   -----------  ------ ------ -----  --- ---- ---
2019 10 21 02  01 07 47.175   +17 23 55.58  .33018 1.3216 169.4 22.7  54d  11
2019 10 21 03  01 07 49.189   +17 23 13.33  .33021 1.3216 169.4 22.7  54d  11
2019 10 21 04  01 07 51.204   +17 22 31.05  .33023 1.3216 169.4 22.7  54d  11
2019 10 21 05  01 07 53.220   +17 21 48.76  .33026 1.3217 169.4 22.7  55d  11
2019 10 21 06  01 07 55.237   +17 21 06.46  .33028 1.3217 169.4 22.7  55d  11
2019 10 21 07  01 07 57.255   +17 20 24.13  .33030 1.3217 169.4 22.7  55d  11
2019 10 21 08  01 07 59.275   +17 19 41.79  .33033 1.3217 169.4 22.7  55d  11
2019 10 21 09  01 08 01.296   +17 18 59.43  .33035 1.3217 169.4 22.7  55d  11
2019 10 21 10  01 08 03.317   +17 18 17.06  .33038 1.3217 169.4 22.7  55d  11
2019 10 21 11  01 08 05.341   +17 17 34.67  .33040 1.3217 169.4 22.7  55d  11
2019 10 21 12  01 08 07.365   +17 16 52.26  .33043 1.3217 169.4 22.7  55d  11
2019 10 21 13  01 08 09.390   +17 16 09.83  .33045 1.3217 169.4 22.7  55d  11
2019 10 21 14  01 08 11.417   +17 15 27.39  .33048 1.3217 169.4 22.7  55d  11
2019 10 21 15  01 08 13.445   +17 14 44.93  .33051 1.3217 169.3 22.7  55d  11
2019 10 21 16  01 08 15.474   +17 14 02.46  .33053 1.3218 169.3 22.7  55d  11
2019 10 21 17  01 08 17.504   +17 13 19.97  .33056 1.3218 169.3 22.7  55d  11
2019 10 21 18  01 08 19.536   +17 12 37.46  .33058 1.3218 169.3 22.7  55d  11
2019 10 21 19  01 08 21.568   +17 11 54.94  .33061 1.3218 169.3 22.7  56d  11
2019 10 21 20  01 08 23.602   +17 11 12.40  .33064 1.3218 169.3 22.7  56d  11
2019 10 21 21  01 08 25.637   +17 10 29.85  .33067 1.3218 169.3 22.7  56d  11
2019 10 21 22  01 08 27.674   +17 09 47.29  .33069 1.3218 169.3 22.7  55d  13
2019 10 21 23  01 08 29.711   +17 09 04.70  .33072 1.3218 169.3 22.7  55d  13
2019 10 22 00  01 08 31.750   +17 08 22.11  .33075 1.3218 169.3 22.7  55d  13
2019 10 22 01  01 08 33.790   +17 07 39.49  .33078 1.3218 169.3 22.7  55d  13
2019 10 22 02  01 08 35.832   +17 06 56.87  .33081 1.3218 169.3 22.7  55d  13
2019 10 22 03  01 08 37.874   +17 06 14.23  .33084 1.3219 169.3 22.7  55d  13
2019 10 22 04  01 08 39.918   +17 05 31.57  .33087 1.3219 169.2 22.7  55d  13
2019 10 22 05  01 08 41.963   +17 04 48.90  .33090 1.3219 169.2 22.7  56d  13
2019 10 22 06  01 08 44.009   +17 04 06.22  .33092 1.3219 169.2 22.7  56d  13
2019 10 22 07  01 08 46.057   +17 03 23.52  .33095 1.3219 169.2 22.7  56d  13
2019 10 22 08  01 08 48.106   +17 02 40.81  .33098 1.3219 169.2 22.7  56d  13
2019 10 22 09  01 08 50.156   +17 01 58.09  .33102 1.3219 169.2 22.7  56d  13
2019 10 22 10  01 08 52.207   +17 01 15.35  .33105 1.3219 169.2 22.7  56d  13
2019 10 22 11  01 08 54.260   +17 00 32.60  .33108 1.3219 169.2 22.7  56d  13
2019 10 22 12  01 08 56.314   +16 59 49.83  .33111 1.3220 169.2 22.7  56d  13
2019 10 22 13  01 08 58.369   +16 59 07.06  .33114 1.3220 169.2 22.7  56d  13
2019 10 22 14  01 09 00.425   +16 58 24.27  .33117 1.3220 169.1 22.7  56d  13
2019 10 22 15  01 09 02.483   +16 57 41.47  .33120 1.3220 169.1 22.7  56d  13
2019 10 22 16  01 09 04.542   +16 56 58.65  .33123 1.3220 169.1 22.7  56d  13
2019 10 22 17  01 09 06.602   +16 56 15.82  .33127 1.3220 169.1 22.7  56d  13
2019 10 22 18  01 09 08.664   +16 55 32.98  .33130 1.3220 169.1 22.7  56d  13
2019 10 22 19  01 09 10.727   +16 54 50.13  .33133 1.3220 169.1 22.7  56d  13
2019 10 22 20  01 09 12.791   +16 54 07.27  .33137 1.3221 169.1 22.7  56d  13
2019 10 22 21  01 09 14.857   +16 53 24.39  .33140 1.3221 169.1 22.7  56d  13
2019 10 22 22  01 09 16.923   +16 52 41.51  .33143 1.3221 169.1 22.7  57d  13
2019 10 22 23  01 09 18.992   +16 51 58.61  .33147 1.3221 169.1 22.7  57d  13
2019 10 23 00  01 09 21.061   +16 51 15.70  .33150 1.3221 169.0 22.7  57d  13
2019 10 23 01  01 09 23.132   +16 50 32.78  .33153 1.3221 169.0 22.7  57d  13